[[{"header":{"parameterUnit":"m.s-1","parameterCategory":2,"la1":30.2991,"la2":30.254,"lo1":-89.0895,"lo2":-89.0444,"dy":0.0017,"dx":0.0017,"nx":28,"ny":28,"refTime":"2023-08-31T03:00:00:Z","depth":"0","parameterNumber":2,"parameterNumberName":"U-component_of_CURRENTS"},"data":[0,0,0,0,0,0,0,0,0,0,0,0,0,0,0,0,0,0,0,0,0,0,0,0,0,0,0,0,0,0,0,0,0,0,0,0,0,0,0,0,0,0,0,0,0,0,0,0,0,0,0,0,0,0,0,0,0,0,0.2421,0.2422,0,0.245,0.245,0.245,0.2448,0.2448,0.2448,0.2447,0.2441,0.2442,0.2442,0,0,0,0,0,0,0,0,0,0,0,0,0,0.2366,0.2367,0.2421,0.2422,0.2422,0.245,0.245,0.245,0.2448,0.2448,0.2448,0.2447,0.2441,0.2442,0.2442,0,0,0,0,0,0,0,0,0,0,0,0,0,0.2391,0.2367,0.2421,0.2426,0.2427,0.245,0.245,0.245,0.2448,0.2448,0.2448,0.2447,0.2441,0.2442,0.2442,0.2451,0,0,0.2442,0.2442,0,0,0,0,0,0,0,0,0.2389,0.2392,0.2425,0.2426,0.2426,0.2446,0.2428,0.2449,0.2449,0.2439,0.2447,0.2447,0.2441,0.2441,0.2446,0.2451,0.245,0.2442,0.2442,0.2442,0.2442,0,0,0,0,0,0,0,0.2387,0.2391,0.2431,0.2425,0.2426,0.2427,0.243,0.2432,0.244,0.2439,0.244,0.2445,0.2441,0.2446,0.2446,0.245,0.2442,0.2442,0.2442,0.2442,0.249,0.2491,0,0,0,0,0,0,0.2388,0.239,0.243,0.2432,0.2408,0.2428,0.2431,0.2439,0.2441,0.2441,0.2446,0.2445,0.2446,0.2446,0.2445,0.2476,0.2442,0.2442,0.2443,0.2489,0.249,0.2492,0,0,0,0,0,0,0.2386,0.2391,0.2429,0.2412,0.2417,0.243,0.2439,0.244,0.2447,0.2446,0.2446,0.2451,0.2445,0.2445,0.2462,0.2474,0.2443,0.2443,0.2488,0.2489,0.2491,0.2523,0,0,0,0,0,0,0.2385,0.239,0.2397,0.2413,0.2418,0.2447,0.2439,0.2441,0.2451,0.2451,0.2451,0.245,0.2445,0.2462,0.2462,0.2474,0.2443,0.2486,0.2488,0.249,0.2521,0.2526,0.2531,0,0,0,0,0,0.2383,0.2388,0.2397,0.2402,0.2427,0.2448,0.2451,0.2457,0.2452,0.246,0.2466,0.245,0.2476,0.2463,0.2463,0.2475,0.2485,0.2488,0.249,0.2519,0.2525,0.253,0,0,0,0,0,0,0.2358,0.239,0.2399,0.2412,0.2433,0.2448,0.2455,0.246,0.2471,0.247,0.2465,0.2465,0.2485,0.2479,0.2465,0.2498,0.2478,0.248,0.2499,0.2505,0.251,0.2513,0.2443,0,0,0,0,0,0.2359,0.2379,0.2404,0.2416,0.2427,0.2443,0.2452,0.246,0.2472,0.2476,0.2478,0.2484,0.2497,0.25,0.2508,0.2524,0.2525,0.2533,0.2538,0.2542,0.2546,0.2556,0.2561,0.25,0.25,0.25,0,0,0.2351,0.2374,0.2382,0.2414,0.2429,0.2451,0.2447,0.2465,0.2484,0.2474,0.2496,0.2501,0.2506,0.2528,0.2536,0.2523,0.2565,0.2545,0.2549,0.2551,0.2559,0.2565,0.257,0.2502,0.2502,0.2502,0,0,0.2348,0.2367,0.2385,0.2407,0.2439,0.2456,0.2463,0.2486,0.2497,0.252,0.2523,0.254,0.2549,0.2563,0.2569,0.2606,0.2592,0.2606,0.2629,0.2638,0.2643,0.2647,0.2674,0.268,0.2605,0.2605,0.2605,0,0.2338,0.2364,0.2391,0.2415,0.2435,0.246,0.2481,0.2501,0.2526,0.2538,0.253,0.2562,0.2568,0.2599,0.2617,0.2616,0.2623,0.2603,0.2643,0.2647,0.2651,0.2678,0.2684,0.2607,0.2607,0.2607,0.2606,0,0.2352,0.2374,0.2385,0.2432,0.2457,0.2478,0.2514,0.2539,0.2553,0.2567,0.2597,0.2609,0.2624,0.2634,0.2638,0.2672,0.267,0.2649,0.2625,0.2659,0.2685,0.2692,0.261,0.2609,0.2608,0.2608,0,0,0.2323,0.2384,0.2386,0.2406,0.2467,0.2482,0.2532,0.2573,0.2594,0.2617,0.2639,0.2672,0.2671,0.2679,0.2685,0.27,0.2744,0.2689,0.2689,0.2711,0.2778,0.2795,0.2804,0.2723,0.2724,0.2724,0.2793,0,0.2325,0.236,0.2401,0.2436,0.2456,0.2507,0.2545,0.2587,0.2619,0.2647,0.2668,0.2688,0.269,0.2696,0.2715,0.2738,0.2758,0.2728,0.2747,0.2748,0.2754,0.2811,0.2783,0.2843,0.2798,0.2799,0.28,0,0.2323,0.2349,0.238,0.2434,0.2447,0.2477,0.2539,0.2579,0.2638,0.2657,0.2688,0.2703,0.275,0.2729,0.2786,0.2765,0.2778,0.279,0.2792,0.2799,0.2776,0.2799,0.2855,0.2825,0.2809,0.2809,0.2808,0,0.2276,0.2331,0.2352,0.2372,0.244,0.2467,0.2508,0.2575,0.2609,0.2666,0.2686,0.2732,0.2761,0.278,0.2829,0.2803,0.2887,0.2846,0.2876,0.2877,0.2855,0.2853,0.2877,0.2876,0.2876,0.2876,0.2875,0,0.2261,0.2273,0.2327,0.2337,0.2364,0.2427,0.2467,0.2517,0.2585,0.2621,0.268,0.2717,0.2773,0.2831,0.2847,0.2904,0.2903,0.29,0.29,0.2868,0.2867,0.2838,0.2796,0.2878,0.2878,0.2877,0.2877,0,0.221,0.2246,0.2267,0.2325,0.2343,0.2362,0.2441,0.2466,0.2541,0.2594,0.2614,0.2723,0.2812,0.2876,0.2938,0.294,0.2914,0.299,0.2968,0.2963,0.294,0.29,0.2766,0.2679,0.3025,0.3025,0.3026,0,0.219,0.2195,0.224,0.2247,0.2275,0.2315,0.234,0.2428,0.2462,0.2594,0.261,0.2738,0.282,0.2949,0.3001,0.3061,0.2951,0.3044,0.2982,0.2958,0.2913,0.2746,0.2669,0.2973,0.2973,0.2974,0.2974,0,0.2155,0.2167,0.2188,0.2201,0.2222,0.2241,0.229,0.2309,0.2416,0.2483,0.2587,0.2675,0.2848,0.2936,0.3047,0.3065,0.2923,0.3049,0.302,0.2883,0.2703,0.2613,0.2922,0.2976,0.2975,0.2975,0.2975,0.2975,0.2131,0.2133,0.2159,0.2171,0.2176,0.2171,0.2179,0.2234,0.2296,0.2404,0.2518,0.2647,0.285,0.3021,0.3011,0.3042,0.2934,0.2997,0.2957,0.2794,0.2683,0.3012,0.3062,0.3063,0.3063,0.3063,0.3063,0,0.2131,0.2133,0.2129,0.2135,0.2113,0.2136,0.2149,0.2159,0.2211,0.2344,0.2451,0.2665,0.2803,0.2927,0.3058,0.2988,0.28,0.2921,0.269,0.2621,0.2944,0.2919,0.2945,0.2945,0.2945,0.2945,0.2945,0.2945,0.2139,0.2143,0.2139,0.2095,0.208,0.2051,0.205,0.2066,0.2142,0.2264,0.239,0.2508,0.2761,0.2979,0.3005,0.2935,0.2699,0.2602,0.2523,0.2806,0.2809,0.2812,0.2782,0.2777,0.2777,0.2122,0.2117,0.2114]},{"header":{"parameterUnit":"m.s-1","parameterCategory":2,"la1":30.2991,"la2":30.254,"lo1":-89.0895,"lo2":-89.0444,"dy":0.0017,"dx":0.0017,"nx":28,"ny":28,"refTime":"2023-08-31T03:00:00:Z","depth":"0","parameterNumber":3,"parameterNumberName":"V-component_of_CURRENTS"},"data":[0,0,0,0,0,0,0,0,0,0,0,0,0,0,0,0,0,0,0,0,0,0,0,0,0,0,0,0,0,0,0,0,0,0,0,0,0,0,0,0,0,0,0,0,0,0,0,0,0,0,0,0,0,0,0,0,0,0,-0.0106,-0.0107,0,-0.0149,-0.015,-0.0151,-0.0194,-0.0194,-0.0195,-0.0195,-0.0297,-0.0299,-0.0301,0,0,0,0,0,0,0,0,0,0,0,0,0,-0.0107,-0.0107,-0.0106,-0.0107,-0.0107,-0.0149,-0.015,-0.0151,-0.0194,-0.0194,-0.0195,-0.0195,-0.0296,-0.0299,-0.0301,0,0,0,0,0,0,0,0,0,0,0,0,0,-0.0126,-0.0107,-0.0106,-0.0131,-0.0134,-0.0149,-0.015,-0.0151,-0.0194,-0.0194,-0.0195,-0.0195,-0.0295,-0.0298,-0.0302,-0.0314,0,0,-0.0313,-0.0314,0,0,0,0,0,0,0,0,-0.0125,-0.0127,-0.0127,-0.013,-0.0133,-0.0165,-0.0187,-0.0208,-0.0194,-0.0174,-0.0195,-0.0196,-0.0256,-0.0263,-0.0272,-0.0319,-0.0323,-0.0313,-0.0315,-0.0317,-0.0318,0,0,0,0,0,0,0,-0.0124,-0.0125,-0.0126,-0.0128,-0.0131,-0.0156,-0.0159,-0.0192,-0.0215,-0.0176,-0.0178,-0.0179,-0.0258,-0.0269,-0.0275,-0.0324,-0.0313,-0.0316,-0.0318,-0.032,-0.0387,-0.0387,0,0,0,0,0,0,-0.011,-0.0124,-0.0125,-0.0127,-0.0127,-0.0155,-0.0159,-0.0156,-0.0213,-0.0221,-0.0178,-0.0181,-0.0262,-0.0271,-0.0279,-0.0283,-0.0317,-0.032,-0.0322,-0.0387,-0.0387,-0.0386,0,0,0,0,0,0,-0.011,-0.0109,-0.0123,-0.0125,-0.0128,-0.0154,-0.0151,-0.0156,-0.0165,-0.0214,-0.0224,-0.018,-0.0263,-0.0274,-0.0302,-0.0288,-0.0322,-0.0325,-0.0388,-0.0387,-0.0387,-0.0301,0,0,0,0,0,0,-0.011,-0.0109,-0.0105,-0.0123,-0.0127,-0.0123,-0.015,-0.0157,-0.0163,-0.0166,-0.0218,-0.0228,-0.0264,-0.0296,-0.0305,-0.0294,-0.0328,-0.0388,-0.0387,-0.0387,-0.0304,-0.0297,-0.0292,0,0,0,0,0,-0.0109,-0.0093,-0.0105,-0.0105,-0.012,-0.0122,-0.0126,-0.0149,-0.0162,-0.016,-0.0196,-0.0227,-0.0299,-0.0299,-0.031,-0.0299,-0.0388,-0.0388,-0.0387,-0.0307,-0.0299,-0.0292,0,0,0,0,0,0,-0.0084,-0.0097,-0.011,-0.0097,-0.0107,-0.0128,-0.0127,-0.0142,-0.0168,-0.0173,-0.0223,-0.0235,-0.0256,-0.0289,-0.0288,-0.0317,-0.0348,-0.035,-0.0284,-0.0277,-0.0271,-0.0243,-0.0331,0,0,0,0,0,-0.0078,-0.0075,-0.0088,-0.0078,-0.0081,-0.0104,-0.0109,-0.0122,-0.0144,-0.0156,-0.0191,-0.023,-0.0261,-0.0277,-0.0313,-0.0326,-0.0351,-0.0327,-0.0321,-0.0316,-0.0301,-0.0327,-0.0322,-0.0384,-0.0384,-0.0384,0,0,-0.0065,-0.0071,-0.007,-0.0074,-0.0086,-0.0076,-0.0109,-0.0107,-0.01,-0.0164,-0.0169,-0.0211,-0.0261,-0.0277,-0.0289,-0.0302,-0.0311,-0.0314,-0.0309,-0.0298,-0.0326,-0.032,-0.0314,-0.0383,-0.0383,-0.0383,0,0,-0.0031,-0.0043,-0.0029,-0.0034,-0.0042,-0.0053,-0.0048,-0.0066,-0.0076,-0.0088,-0.0131,-0.0157,-0.0208,-0.0233,-0.0254,-0.0235,-0.0279,-0.0252,-0.0195,-0.0221,-0.0215,-0.0211,-0.0229,-0.0227,-0.0246,-0.0246,-0.0246,0,-0.0017,0.0001,-0.0024,-0.0009,-0.0004,-0.0036,-0.0013,-0.0026,-0.005,-0.0051,-0.008,-0.0138,-0.0182,-0.0192,-0.0188,-0.0218,-0.024,-0.0217,-0.0211,-0.0207,-0.0204,-0.0224,-0.0223,-0.0242,-0.0242,-0.0243,-0.0243,0,0.0027,0.004,0.0051,0.0057,0.0058,0.0073,0.0057,0.0057,0.0037,0.0022,0.0005,-0.0054,-0.0085,-0.0106,-0.0143,-0.0141,-0.0166,-0.02,-0.0224,-0.0192,-0.0216,-0.0216,-0.0236,-0.0237,-0.0239,-0.024,0,0,0.0067,0.008,0.0085,0.01,0.0096,0.0106,0.012,0.0128,0.0146,0.0106,0.0122,0.0063,0.0031,0.0004,-0.0045,-0.0067,-0.007,-0.0118,-0.0121,-0.0125,-0.0121,-0.0126,-0.0127,-0.0105,-0.0105,-0.0105,-0.0144,0,0.0111,0.0156,0.0149,0.0194,0.0217,0.0197,0.0218,0.0216,0.0202,0.0206,0.0151,0.0135,0.0073,0.0057,0.0028,-0.0048,-0.0068,-0.0056,-0.0161,-0.0163,-0.0163,-0.0126,-0.0093,-0.0124,-0.0144,-0.0144,-0.0144,0,0.0158,0.0183,0.0235,0.0269,0.0278,0.0301,0.0331,0.0344,0.0337,0.0324,0.03,0.0247,0.021,0.0146,0.0054,0.0062,-0.0015,-0.0076,-0.008,-0.0112,-0.0168,-0.0162,-0.0124,-0.0275,-0.0145,-0.0145,-0.0145,0,0.0202,0.0245,0.0291,0.03,0.033,0.0357,0.0377,0.0385,0.0413,0.0399,0.0414,0.0347,0.0324,0.022,0.0091,0.007,-0.0012,-0.0063,-0.0136,-0.0138,-0.0142,-0.0144,-0.0251,-0.0121,-0.0121,-0.0121,-0.0121,0,0.0251,0.0288,0.0318,0.0344,0.041,0.041,0.048,0.0486,0.0511,0.0565,0.0481,0.0505,0.034,0.0268,0.0134,0.0012,0.0019,-0.0109,-0.0142,-0.0112,-0.0111,-0.027,-0.035,-0.0123,-0.0122,-0.0122,-0.0122,0,0.0288,0.0305,0.0363,0.0412,0.0432,0.0481,0.0555,0.0607,0.0617,0.0685,0.0685,0.0628,0.0538,0.0373,0.0208,0.0084,-0.0129,-0.0099,-0.0047,-0.0072,-0.0285,-0.036,-0.0492,-0.0572,-0.0182,-0.0183,-0.0183,0,0.031,0.0344,0.0415,0.0463,0.049,0.0562,0.0622,0.0656,0.0722,0.0773,0.0819,0.0749,0.0737,0.0496,0.025,0.003,-0.0125,-0.0095,-0.0133,-0.0275,-0.0385,-0.0451,-0.0514,-0.0108,-0.0107,-0.0107,-0.0107,0,0.036,0.0384,0.0434,0.0533,0.0606,0.0692,0.0784,0.0852,0.091,0.0978,0.1056,0.1049,0.0824,0.0625,0.0308,0.0137,-0.0192,-0.0095,-0.0258,-0.0337,-0.0399,-0.0498,-0.0108,-0.0104,-0.0104,-0.0104,-0.0104,-0.0104,0.0401,0.045,0.0525,0.0618,0.0708,0.0829,0.0922,0.1033,0.116,0.1306,0.1259,0.1317,0.0992,0.0569,0.0293,-0.0164,-0.0187,-0.0293,-0.0372,-0.0426,-0.0503,-0.0098,-0.0125,-0.0125,-0.0126,-0.0126,-0.0126,0,0.0458,0.0519,0.0611,0.0735,0.0849,0.0879,0.1039,0.1154,0.1335,0.148,0.1568,0.1468,0.1062,0.0614,0.0001,-0.0354,-0.0515,-0.0559,-0.0653,-0.0707,-0.0353,-0.035,-0.0408,-0.0408,-0.0408,-0.0407,-0.0407,-0.0407,0.0498,0.0592,0.0642,0.0839,0.093,0.1092,0.1192,0.137,0.1517,0.174,0.1824,0.1828,0.1494,0.0374,-0.0424,-0.0636,-0.0896,-0.0949,-0.1104,-0.087,-0.0852,-0.0835,-0.0852,-0.1014,-0.1015,-0.1417,-0.1421,-0.1424]}],[{"header":{"parameterUnit":"m.s-1","parameterCategory":2,"la1":30.2991,"la2":30.254,"lo1":-89.0895,"lo2":-89.0444,"dy":0.0017,"dx":0.0017,"nx":28,"ny":28,"refTime":"2023-08-31T03:00:00:Z","depth":"2","parameterNumber":2,"parameterNumberName":"U-component_of_CURRENTS"},"data":[0,0,0,0,0,0,0,0,0,0,0,0,0,0,0,0,0,0,0,0,0,0,0,0,0,0,0,0,0,0,0,0,0,0,0,0,0,0,0,0,0,0,0,0,0,0,0,0,0,0,0,0,0,0,0,0,0,0,0.1977,0.1978,0,0.2017,0.2017,0.2017,0.2035,0.2035,0.2035,0.2035,0.2067,0.2068,0.2069,0,0,0,0,0,0,0,0,0,0,0,0,0,0.1919,0.192,0.1977,0.1978,0.1979,0.2017,0.2017,0.2017,0.2035,0.2035,0.2035,0.2035,0.2067,0.2068,0.2069,0,0,0,0,0,0,0,0,0,0,0,0,0,0.1949,0.192,0.1977,0.1993,0.1995,0.2017,0.2017,0.2018,0.2035,0.2035,0.2035,0.2035,0.2067,0.2068,0.2069,0.2073,0,0,0.2072,0.2073,0,0,0,0,0,0,0,0,0.1947,0.195,0.199,0.1992,0.1994,0.2022,0.2008,0.2036,0.2035,0.2018,0.2035,0.2035,0.2052,0.2055,0.206,0.2075,0.2076,0.2072,0.2073,0.2074,0.2074,0,0,0,0,0,0,0,0.1945,0.1949,0.1991,0.1991,0.1993,0.1999,0.2003,0.2014,0.2033,0.202,0.2021,0.2028,0.2053,0.2059,0.2061,0.2077,0.2072,0.2073,0.2074,0.2075,0.2127,0.2128,0,0,0,0,0,0,0.1943,0.1947,0.199,0.1993,0.1972,0.2,0.2004,0.2012,0.2033,0.2037,0.2028,0.2029,0.2057,0.2059,0.2062,0.2104,0.2074,0.2075,0.2075,0.2126,0.2127,0.2128,0,0,0,0,0,0,0.1941,0.1946,0.1989,0.1972,0.1978,0.2001,0.2009,0.2013,0.2031,0.2039,0.2043,0.2044,0.2057,0.206,0.2095,0.2104,0.2075,0.2076,0.2126,0.2127,0.2128,0.2166,0,0,0,0,0,0,0.194,0.1946,0.1955,0.1972,0.1979,0.2012,0.2009,0.2013,0.2035,0.2037,0.2054,0.2057,0.2057,0.2094,0.2097,0.2105,0.2077,0.2125,0.2126,0.2127,0.2164,0.2169,0.2172,0,0,0,0,0,0.1937,0.1944,0.1956,0.1961,0.199,0.2012,0.2017,0.2032,0.2036,0.2048,0.2069,0.2057,0.2103,0.2096,0.2099,0.2108,0.2124,0.2126,0.2127,0.2162,0.2168,0.2172,0,0,0,0,0,0,0.192,0.1947,0.196,0.1974,0.1999,0.2016,0.203,0.204,0.2065,0.2071,0.2076,0.2081,0.211,0.2107,0.2099,0.2126,0.2107,0.2109,0.2133,0.2138,0.2142,0.2144,0.2078,0,0,0,0,0,0.1922,0.194,0.1965,0.1981,0.1993,0.2015,0.2028,0.2041,0.2063,0.2074,0.2085,0.2098,0.2116,0.2127,0.2138,0.2161,0.2165,0.2165,0.2169,0.2172,0.2176,0.22,0.2206,0.2133,0.2133,0.2133,0,0,0.1918,0.194,0.1948,0.198,0.2,0.2021,0.2024,0.205,0.2068,0.2074,0.2103,0.2115,0.2126,0.2152,0.2163,0.2153,0.2197,0.2174,0.2177,0.2179,0.2202,0.2209,0.2216,0.2134,0.2134,0.2134,0,0,0.1919,0.1943,0.1956,0.1981,0.2018,0.2033,0.2044,0.2069,0.2084,0.2117,0.2124,0.215,0.217,0.2183,0.2192,0.2225,0.2218,0.2221,0.2246,0.2269,0.2275,0.2281,0.2303,0.231,0.2223,0.2223,0.2223,0,0.1912,0.194,0.1964,0.1988,0.201,0.204,0.2059,0.2081,0.2114,0.2131,0.2131,0.2177,0.2185,0.2222,0.2234,0.2234,0.2247,0.2227,0.2275,0.228,0.2286,0.2306,0.2314,0.2225,0.2225,0.2224,0.2224,0,0.1928,0.1953,0.1966,0.2008,0.203,0.2057,0.2089,0.2117,0.2138,0.2156,0.2198,0.2218,0.2245,0.2248,0.2255,0.2293,0.2291,0.2278,0.2263,0.2295,0.2315,0.2322,0.2228,0.2227,0.2226,0.2226,0,0,0.1899,0.1962,0.1968,0.1987,0.2046,0.2059,0.2105,0.2146,0.2175,0.2206,0.2242,0.2275,0.2288,0.2299,0.2308,0.2329,0.2378,0.2323,0.2323,0.2346,0.2436,0.2422,0.2428,0.2378,0.2379,0.238,0.2438,0,0.1906,0.194,0.1979,0.2014,0.203,0.2083,0.2116,0.2159,0.22,0.2242,0.2274,0.231,0.2306,0.2328,0.2351,0.2375,0.2398,0.2364,0.2399,0.24,0.2386,0.2436,0.2261,0.2297,0.2444,0.2446,0.2446,0,0.1904,0.1931,0.1961,0.2011,0.2024,0.2055,0.212,0.2158,0.2232,0.2264,0.2316,0.2343,0.2396,0.238,0.2441,0.2422,0.2434,0.2444,0.2446,0.2424,0.24,0.2287,0.2304,0.2458,0.2457,0.2456,0.2455,0,0.1856,0.1911,0.1934,0.1955,0.202,0.2051,0.2092,0.2164,0.2203,0.2289,0.2329,0.2386,0.2429,0.2455,0.2493,0.2472,0.2553,0.2522,0.2518,0.2517,0.237,0.2354,0.2557,0.2557,0.2556,0.2556,0.2556,0,0.1842,0.1856,0.1915,0.1932,0.1962,0.2018,0.2068,0.2126,0.2209,0.2259,0.2337,0.2391,0.2451,0.2508,0.2518,0.2556,0.2577,0.2537,0.2537,0.2379,0.2364,0.2498,0.2491,0.2558,0.2558,0.2558,0.2557,0,0.1788,0.183,0.185,0.1918,0.1943,0.1963,0.2053,0.2086,0.2181,0.2257,0.2289,0.241,0.2494,0.2548,0.2606,0.2594,0.2621,0.2622,0.2439,0.2417,0.2559,0.2553,0.2621,0.2621,0.2621,0.2621,0.2621,0,0.1766,0.1772,0.183,0.1841,0.1879,0.1925,0.1958,0.2059,0.2105,0.2262,0.2292,0.242,0.2492,0.2593,0.2606,0.2636,0.2651,0.2473,0.2397,0.2576,0.2569,0.2563,0.2556,0.2215,0.2212,0.2209,0.2207,0,0.1726,0.1745,0.1768,0.1792,0.1824,0.1854,0.192,0.1948,0.2073,0.2153,0.2268,0.2347,0.2477,0.2453,0.2515,0.2496,0.2456,0.2422,0.2657,0.2235,0.2201,0.2191,0.2197,0.2183,0.2186,0.2188,0.2189,0.219,0.1695,0.1692,0.1725,0.1743,0.1765,0.1784,0.1791,0.1863,0.1934,0.204,0.2164,0.2237,0.2301,0.2326,0.2268,0.223,0.2388,0.2269,0.2273,0.2281,0.2233,0.2202,0.2176,0.2178,0.218,0.2182,0.2183,0,0.167,0.1673,0.1676,0.169,0.1678,0.1728,0.1761,0.1751,0.1801,0.1932,0.2022,0.193,0.1954,0.2005,0.193,0.1942,0.1879,0.1847,0.1746,0.1774,0.1798,0.172,0.1529,0.1526,0.1523,0.1521,0,0,0.1661,0.1654,0.1653,0.1617,0.1619,0.1599,0.1602,0.1597,0.1657,0.1681,0.1731,0.191,0.1999,0.1751,0.1724,0.1615,0.1671,0.1552,0.2091,0.2005,0.2025,0.2072,0.199,0,0,0,0,0]},{"header":{"parameterUnit":"m.s-1","parameterCategory":2,"la1":30.2991,"la2":30.254,"lo1":-89.0895,"lo2":-89.0444,"dy":0.0017,"dx":0.0017,"nx":28,"ny":28,"refTime":"2023-08-31T03:00:00:Z","depth":"2","parameterNumber":3,"parameterNumberName":"V-component_of_CURRENTS"},"data":[0,0,0,0,0,0,0,0,0,0,0,0,0,0,0,0,0,0,0,0,0,0,0,0,0,0,0,0,0,0,0,0,0,0,0,0,0,0,0,0,0,0,0,0,0,0,0,0,0,0,0,0,0,0,0,0,0,0,0.0065,0.0065,0,0.0019,0.0018,0.0018,-0.0022,-0.0022,-0.0022,-0.0022,-0.0108,-0.011,-0.0112,0,0,0,0,0,0,0,0,0,0,0,0,0,0.0074,0.0074,0.0065,0.0065,0.0064,0.0019,0.0018,0.0018,-0.0021,-0.0022,-0.0022,-0.0023,-0.0107,-0.011,-0.0112,0,0,0,0,0,0,0,0,0,0,0,0,0,0.0052,0.0074,0.0065,0.004,0.0038,0.0019,0.0018,0.0017,-0.0021,-0.0022,-0.0022,-0.0023,-0.0106,-0.0109,-0.0112,-0.0122,0,0,-0.0122,-0.0123,0,0,0,0,0,0,0,0,0.0053,0.0052,0.0045,0.0042,0.0039,0.0005,-0.001,-0.0031,-0.0021,-0.0,-0.0022,-0.0023,-0.0072,-0.0078,-0.0087,-0.0126,-0.013,-0.0122,-0.0124,-0.0125,-0.0126,0,0,0,0,0,0,0,0.0055,0.0053,0.0045,0.0044,0.0041,0.0016,0.0013,-0.0014,-0.0035,-0.0002,-0.0005,-0.0007,-0.0074,-0.0084,-0.009,-0.0131,-0.0122,-0.0124,-0.0126,-0.0127,-0.0181,-0.0181,0,0,0,0,0,0,0.0067,0.0055,0.0047,0.0044,0.0047,0.0017,0.0013,0.0015,-0.0034,-0.0041,-0.0007,-0.0009,-0.0079,-0.0086,-0.0093,-0.0101,-0.0125,-0.0128,-0.0129,-0.0182,-0.0181,-0.0181,0,0,0,0,0,0,0.0067,0.0067,0.0049,0.0049,0.0045,0.0018,0.002,0.0015,0.0004,-0.0037,-0.0046,-0.0012,-0.008,-0.0089,-0.0115,-0.0105,-0.0129,-0.0132,-0.0182,-0.0181,-0.0181,-0.0122,0,0,0,0,0,0,0.0068,0.0067,0.0069,0.005,0.0046,0.0045,0.0021,0.0014,0.0004,0.0001,-0.0044,-0.0052,-0.0081,-0.011,-0.0118,-0.011,-0.0134,-0.0183,-0.0182,-0.0181,-0.0124,-0.0119,-0.0115,0,0,0,0,0,0.0068,0.0081,0.007,0.0069,0.0051,0.0045,0.0041,0.0018,0.0005,0.0005,-0.0027,-0.0051,-0.0111,-0.0112,-0.0121,-0.0114,-0.0183,-0.0182,-0.0181,-0.0126,-0.012,-0.0115,0,0,0,0,0,0,0.0088,0.0078,0.0065,0.0074,0.0062,0.0039,0.0038,0.0022,-0.0003,-0.0008,-0.005,-0.006,-0.0078,-0.0104,-0.0105,-0.0127,-0.015,-0.015,-0.0104,-0.0099,-0.0095,-0.0078,-0.0137,0,0,0,0,0,0.0093,0.0098,0.0083,0.0088,0.0085,0.0061,0.0054,0.004,0.0018,0.0007,-0.0023,-0.0056,-0.0081,-0.0097,-0.0123,-0.0137,-0.0165,-0.0138,-0.0133,-0.0129,-0.0121,-0.0158,-0.0156,-0.0178,-0.0178,-0.0178,0,0,0.0102,0.0096,0.0099,0.0092,0.0079,0.0085,0.0055,0.0052,0.0055,0.0001,-0.0007,-0.0041,-0.0081,-0.0095,-0.0106,-0.0117,-0.0136,-0.0128,-0.0124,-0.0118,-0.0157,-0.0155,-0.0153,-0.0177,-0.0178,-0.0178,0,0,0.0127,0.0118,0.0131,0.0125,0.0113,0.0102,0.0105,0.0085,0.0074,0.006,0.0025,-0.0002,-0.0041,-0.0066,-0.0084,-0.007,-0.011,-0.0078,-0.0043,-0.0079,-0.0078,-0.0077,-0.0102,-0.0104,-0.0077,-0.0077,-0.0077,0,0.0137,0.0152,0.0133,0.0144,0.0146,0.0115,0.0133,0.012,0.0094,0.0087,0.0066,0.0011,-0.0025,-0.0042,-0.0038,-0.0059,-0.0084,-0.006,-0.0073,-0.0072,-0.0072,-0.0099,-0.0102,-0.0074,-0.0074,-0.0074,-0.0075,0,0.0173,0.0182,0.0191,0.0196,0.0195,0.0205,0.019,0.0184,0.0165,0.0146,0.0122,0.0071,0.0039,0.0023,-0.0005,-0.0018,-0.0036,-0.0062,-0.0085,-0.0067,-0.0096,-0.01,-0.0069,-0.0071,-0.0071,-0.0072,0,0,0.0205,0.0215,0.0218,0.0231,0.0225,0.0233,0.0239,0.0238,0.0244,0.0205,0.0204,0.0153,0.012,0.0097,0.0056,0.0023,-0.0,-0.0014,-0.0017,-0.0034,-0.0073,-0.008,-0.0085,-0.003,-0.003,-0.0031,-0.0091,0,0.0239,0.0277,0.0271,0.0306,0.0326,0.0305,0.0318,0.0308,0.0287,0.0277,0.0219,0.0201,0.015,0.0135,0.0094,0.0025,-0.0009,0.0019,-0.0092,-0.0095,-0.01,-0.0089,-0.0063,-0.0114,-0.0095,-0.0096,-0.0097,0,0.0278,0.0299,0.0342,0.0369,0.0376,0.0394,0.0408,0.0414,0.0386,0.0367,0.033,0.0281,0.0233,0.0184,0.0077,0.0097,0.0021,-0.0038,-0.0043,-0.0071,-0.0109,-0.0131,-0.0123,-0.0104,-0.0103,-0.0103,-0.0102,0,0.0316,0.0351,0.039,0.0397,0.042,0.0439,0.0453,0.0442,0.0457,0.0425,0.0426,0.0349,0.032,0.0215,0.0094,0.0083,-0.0026,-0.0061,-0.0138,-0.014,-0.015,-0.0151,-0.0139,-0.0139,-0.0139,-0.0138,-0.0138,0,0.0357,0.0387,0.0414,0.0435,0.0491,0.0487,0.0536,0.0532,0.0533,0.0562,0.048,0.0482,0.0326,0.0243,0.012,-0.0012,-0.0009,-0.0126,-0.0155,-0.0127,-0.0126,-0.0145,-0.0145,-0.0141,-0.014,-0.014,-0.0139,0,0.0389,0.0402,0.0453,0.0492,0.0511,0.0551,0.0604,0.0633,0.0628,0.0662,0.0658,0.0582,0.0476,0.0317,0.0148,0.0035,-0.0101,-0.0151,-0.0101,-0.0123,-0.0198,-0.0194,-0.0244,-0.0245,-0.0245,-0.0246,-0.0246,0,0.0408,0.0436,0.0499,0.0537,0.0559,0.0618,0.066,0.0679,0.0718,0.0732,0.0757,0.0667,0.062,0.0372,0.0147,-0.0067,-0.0099,-0.0179,-0.0201,-0.0184,-0.0208,-0.0203,-0.0199,-0.0192,-0.0192,-0.0192,-0.0192,0,0.0445,0.0465,0.0509,0.0591,0.0647,0.0716,0.0784,0.083,0.0859,0.0894,0.0923,0.0887,0.0653,0.0434,0.0137,-0.0002,-0.0145,-0.0185,-0.0186,-0.0165,-0.0139,-0.0161,-0.0158,-0.0192,-0.0192,-0.0192,-0.0192,-0.0192,0.0471,0.0512,0.0571,0.065,0.072,0.081,0.0879,0.0947,0.1026,0.1088,0.1051,0.1014,0.0753,0.0379,0.0117,-0.015,-0.0144,-0.0232,-0.023,-0.0229,-0.0208,-0.0184,-0.0241,-0.0241,-0.0241,-0.0241,-0.0242,0,0.05,0.0551,0.0626,0.0724,0.0807,0.0842,0.0957,0.1022,0.1127,0.118,0.1206,0.0981,0.0729,0.0435,0.0032,-0.0209,-0.0223,-0.0272,-0.0245,-0.0243,-0.0242,-0.022,-0.0257,-0.0258,-0.0259,-0.026,0,0,0.0517,0.0591,0.0636,0.078,0.0853,0.0976,0.1049,0.1141,0.1209,0.1259,0.125,0.1193,0.0827,0.0536,0.0199,-0.0033,-0.0074,-0.0067,-0.0026,0.0048,0.0052,-0.019,-0.0151,0,0,0,0,0]}],[{"header":{"parameterUnit":"m.s-1","parameterCategory":2,"la1":30.2991,"la2":30.254,"lo1":-89.0895,"lo2":-89.0444,"dy":0.0017,"dx":0.0017,"nx":28,"ny":28,"refTime":"2023-08-31T03:00:00:Z","depth":"4","parameterNumber":2,"parameterNumberName":"U-component_of_CURRENTS"},"data":[0,0,0,0,0,0,0,0,0,0,0,0,0,0,0,0,0,0,0,0,0,0,0,0,0,0,0,0,0,0,0,0,0,0,0,0,0,0,0,0,0,0,0,0,0,0,0,0,0,0,0,0,0,0,0,0,0,0,0.1128,0.1129,0,0.1188,0.1188,0.1189,0.1229,0.123,0.123,0.1231,0.1298,0.1299,0.13,0,0,0,0,0,0,0,0,0,0,0,0,0,0.1028,0.103,0.1128,0.1129,0.113,0.1188,0.1188,0.1189,0.1229,0.123,0.1231,0.1231,0.1297,0.1299,0.13,0,0,0,0,0,0,0,0,0,0,0,0,0,0.1075,0.103,0.1128,0.116,0.1163,0.1188,0.1188,0.1189,0.1229,0.123,0.1231,0.1232,0.1297,0.1299,0.1301,0.1295,0,0,0.1306,0.1307,0,0,0,0,0,0,0,0,0.1073,0.1079,0.1154,0.1158,0.1162,0.1205,0.1178,0.1226,0.1229,0.1201,0.1231,0.1232,0.1269,0.1273,0.1278,0.1298,0.1301,0.1306,0.1308,0.1308,0.1309,0,0,0,0,0,0,0,0.1069,0.1076,0.1149,0.1155,0.116,0.1164,0.1171,0.1187,0.1227,0.1203,0.1207,0.1218,0.1271,0.1276,0.128,0.1302,0.1306,0.1308,0.1309,0.131,0.1408,0.1409,0,0,0,0,0,0,0.1069,0.1073,0.1147,0.1151,0.1122,0.1165,0.1173,0.1187,0.1227,0.1234,0.1218,0.122,0.1272,0.1277,0.1282,0.1354,0.1308,0.131,0.1311,0.1406,0.1408,0.1409,0,0,0,0,0,0,0.1066,0.1075,0.1145,0.1115,0.1125,0.1166,0.1182,0.1188,0.1223,0.1238,0.1245,0.125,0.1273,0.128,0.1316,0.1354,0.1311,0.1313,0.1404,0.1407,0.1409,0.1448,0,0,0,0,0,0,0.1063,0.1073,0.1094,0.1116,0.1127,0.1176,0.1181,0.1189,0.1229,0.1233,0.1267,0.1273,0.1274,0.1314,0.1318,0.1356,0.1314,0.1403,0.1405,0.1408,0.1445,0.1451,0.1457,0,0,0,0,0,0.1059,0.1077,0.1094,0.1104,0.115,0.1177,0.1184,0.1213,0.123,0.1247,0.127,0.1273,0.1335,0.1316,0.1321,0.136,0.1401,0.1405,0.1408,0.1442,0.145,0.1457,0,0,0,0,0,0,0.1049,0.1084,0.1103,0.1133,0.1164,0.1186,0.121,0.1229,0.126,0.1273,0.1284,0.1291,0.134,0.1343,0.1321,0.1397,0.1372,0.1377,0.1397,0.1404,0.141,0.1424,0.1316,0,0,0,0,0,0.1055,0.1077,0.1112,0.1139,0.1158,0.119,0.121,0.1231,0.1257,0.1274,0.1298,0.1326,0.1352,0.1372,0.1392,0.1429,0.1436,0.146,0.1466,0.1471,0.1487,0.1522,0.1533,0.142,0.142,0.142,0,0,0.1057,0.1082,0.1095,0.1139,0.1166,0.1195,0.1205,0.1244,0.1273,0.1275,0.1328,0.1348,0.1366,0.1408,0.1431,0.1419,0.1507,0.1476,0.148,0.1493,0.1527,0.1538,0.1547,0.1423,0.1422,0.1422,0,0,0.1064,0.1099,0.1119,0.1147,0.1196,0.1215,0.1233,0.1274,0.1303,0.1346,0.1361,0.1404,0.1441,0.1465,0.1479,0.1531,0.1536,0.1545,0.1589,0.1623,0.1632,0.1641,0.1658,0.1668,0.1549,0.1549,0.1549,0,0.1066,0.1102,0.113,0.1159,0.1189,0.1228,0.1259,0.1289,0.1338,0.137,0.1372,0.1454,0.1469,0.1527,0.1549,0.1547,0.1561,0.1557,0.163,0.1639,0.1647,0.1663,0.1673,0.1552,0.1551,0.1551,0.1551,0,0.1085,0.1123,0.114,0.1189,0.1222,0.1257,0.1302,0.1346,0.1387,0.1419,0.1495,0.1517,0.1571,0.1583,0.1583,0.1656,0.1646,0.163,0.1609,0.1661,0.1674,0.1684,0.1555,0.1554,0.1554,0.1553,0,0,0.1059,0.1137,0.1146,0.1177,0.1245,0.1268,0.1332,0.1396,0.1447,0.15,0.1567,0.162,0.1651,0.167,0.1684,0.1716,0.1779,0.1706,0.1707,0.1719,0.1851,0.1741,0.1741,0.1778,0.178,0.1782,0.1834,0,0.1069,0.1122,0.1165,0.122,0.1251,0.1314,0.1365,0.143,0.1491,0.1563,0.1615,0.168,0.1678,0.1716,0.1751,0.1777,0.1809,0.1766,0.1804,0.1805,0.1698,0.175,0.1789,0.1841,0.1844,0.1845,0.1846,0,0.1071,0.1108,0.1164,0.1241,0.1263,0.1308,0.1407,0.1461,0.1568,0.162,0.1703,0.1744,0.1824,0.1803,0.1882,0.1858,0.1868,0.1874,0.1876,0.177,0.1714,0.1783,0.1864,0.1863,0.1861,0.186,0.1859,0,0.1025,0.1104,0.1151,0.1178,0.127,0.1321,0.1382,0.1486,0.1547,0.1671,0.1732,0.1819,0.1877,0.1913,0.1944,0.1924,0.2011,0.1975,0.1885,0.1877,0.1941,0.1931,0.203,0.203,0.2029,0.2029,0.2029,0,0.1008,0.1045,0.1139,0.1163,0.1229,0.1304,0.1392,0.1472,0.1589,0.1663,0.1765,0.1832,0.1911,0.1968,0.1976,0.1966,0.204,0.1908,0.189,0.1955,0.1946,0.1947,0.1937,0.2031,0.2031,0.203,0.203,0,0.0953,0.1017,0.1069,0.1172,0.1211,0.1262,0.1396,0.1455,0.1578,0.1682,0.1729,0.1864,0.1936,0.1992,0.205,0.1995,0.1999,0.1974,0.205,0.2033,0.1832,0.1823,0.1872,0.1868,0.1865,0.1863,0.1861,0,0.0931,0.0952,0.1061,0.1101,0.1157,0.1246,0.1308,0.1441,0.1506,0.1684,0.1725,0.1849,0.192,0.192,0.1982,0.199,0.1965,0.1947,0.1881,0.1841,0.182,0.1815,0.1811,0.1857,0.1856,0.1855,0.1855,0,0.0877,0.0924,0.0967,0.1051,0.1124,0.1195,0.1298,0.1333,0.1482,0.1601,0.1684,0.1733,0.1812,0.1852,0.1877,0.1877,0.1947,0.1918,0.1922,0.186,0.1824,0.1804,0.1803,0.1845,0.1846,0.1847,0.1848,0,0.0836,0.0851,0.0917,0.0988,0.1069,0.1126,0.1189,0.1268,0.1346,0.1532,0.1553,0.1686,0.1795,0.1796,0.1821,0.1814,0.1777,0.1705,0.172,0.1731,0.1661,0.1593,0.1541,0,0,0,0,0,0.0788,0.08,0.0853,0.092,0.0997,0.1056,0.1172,0.1236,0.137,0.139,0.1468,0.1535,0.1589,0.1659,0.1622,0.1752,0.1779,0.1701,0.1701,0.1792,0.1803,0.1732,0,0,0,0,0,0,0.0754,0.0791,0.0819,0.085,0.0886,0.0967,0.104,0.1135,0.1154,0.1293,0.1332,0.1436,0.1511,0.1589,0.159,0.1608,0.1575,0.178,0.1775,0.1785,0.1796,0.1804,0.1736,0,0,0,0,0]},{"header":{"parameterUnit":"m.s-1","parameterCategory":2,"la1":30.2991,"la2":30.254,"lo1":-89.0895,"lo2":-89.0444,"dy":0.0017,"dx":0.0017,"nx":28,"ny":28,"refTime":"2023-08-31T03:00:00:Z","depth":"4","parameterNumber":3,"parameterNumberName":"V-component_of_CURRENTS"},"data":[0,0,0,0,0,0,0,0,0,0,0,0,0,0,0,0,0,0,0,0,0,0,0,0,0,0,0,0,0,0,0,0,0,0,0,0,0,0,0,0,0,0,0,0,0,0,0,0,0,0,0,0,0,0,0,0,0,0,0.0147,0.0147,0,0.0117,0.0117,0.0117,0.01,0.01,0.01,0.01,0.0066,0.0065,0.0064,0,0,0,0,0,0,0,0,0,0,0,0,0,0.0153,0.0153,0.0147,0.0147,0.0147,0.0117,0.0117,0.0116,0.01,0.01,0.01,0.01,0.0066,0.0065,0.0064,0,0,0,0,0,0,0,0,0,0,0,0,0,0.0139,0.0153,0.0148,0.0136,0.0134,0.0118,0.0117,0.0116,0.01,0.01,0.01,0.01,0.0067,0.0065,0.0064,0.0055,0,0,0.006,0.0059,0,0,0,0,0,0,0,0,0.014,0.0139,0.0138,0.0136,0.0135,0.0113,0.0106,0.0096,0.01,0.0112,0.01,0.01,0.0082,0.0079,0.0073,0.0053,0.0052,0.006,0.0059,0.0058,0.0058,0,0,0,0,0,0,0,0.0141,0.014,0.0135,0.0137,0.0136,0.0119,0.0117,0.0104,0.0097,0.0111,0.011,0.0108,0.0081,0.0074,0.0072,0.0052,0.006,0.0059,0.0058,0.0057,0.0019,0.0019,0,0,0,0,0,0,0.0148,0.0141,0.0136,0.0134,0.0138,0.0119,0.0117,0.012,0.0097,0.0094,0.0108,0.0107,0.0076,0.0073,0.0071,0.0067,0.0058,0.0057,0.0056,0.0019,0.0019,0.0018,0,0,0,0,0,0,0.0148,0.0148,0.0137,0.0137,0.0135,0.0119,0.0122,0.0119,0.0115,0.0095,0.0091,0.0107,0.0076,0.0072,0.0067,0.0065,0.0056,0.0055,0.0019,0.0019,0.0019,0.0054,0,0,0,0,0,0,0.0149,0.0149,0.0151,0.0138,0.0135,0.0133,0.0122,0.0118,0.0113,0.0112,0.0093,0.0089,0.0076,0.0069,0.0066,0.0063,0.0054,0.0019,0.0019,0.0019,0.0053,0.0055,0.0057,0,0,0,0,0,0.0149,0.0158,0.0152,0.0151,0.014,0.0133,0.0131,0.0119,0.0113,0.0114,0.0104,0.009,0.0064,0.0068,0.0064,0.0061,0.002,0.0019,0.0019,0.0053,0.0055,0.0057,0,0,0,0,0,0,0.0162,0.0157,0.015,0.0157,0.0147,0.0131,0.0132,0.0122,0.0113,0.0114,0.0094,0.009,0.0082,0.0066,0.0072,0.0047,0.0037,0.0035,0.0064,0.0066,0.0068,0.0074,0.0053,0,0,0,0,0,0.0166,0.0172,0.016,0.0165,0.0163,0.0146,0.0142,0.0135,0.0125,0.0121,0.0107,0.009,0.0076,0.0068,0.0054,0.0045,0.0021,0.0037,0.0039,0.004,0.0042,0.0002,0.0,0.0017,0.0017,0.0017,0,0,0.0172,0.017,0.0173,0.0168,0.016,0.0162,0.0144,0.0142,0.0143,0.0119,0.0117,0.0098,0.0075,0.0065,0.0059,0.0053,0.0024,0.004,0.0042,0.0042,0.0001,-0.0,-0.0002,0.0017,0.0017,0.0017,0,0,0.0189,0.0186,0.0196,0.0191,0.0183,0.0176,0.0177,0.0164,0.0157,0.0153,0.0133,0.0115,0.0096,0.0076,0.0064,0.0065,0.0036,0.0057,0.0071,0.0033,0.0031,0.003,0.0004,-0.0,0.0057,0.0057,0.0057,0,0.0194,0.0207,0.0197,0.0203,0.0204,0.0185,0.0195,0.0185,0.0171,0.0165,0.0159,0.012,0.01,0.0081,0.008,0.0069,0.0047,0.0068,0.0036,0.0034,0.0031,0.0005,0.0,0.0059,0.0058,0.0058,0.0058,0,0.0217,0.0226,0.0232,0.0236,0.0235,0.0241,0.0229,0.0224,0.0214,0.02,0.018,0.0149,0.0126,0.0112,0.0098,0.007,0.006,0.0045,0.0033,0.0032,0.0005,-0.0001,0.0061,0.006,0.006,0.006,0,0,0.0233,0.0246,0.0249,0.0259,0.0255,0.026,0.026,0.0255,0.0256,0.0229,0.0223,0.0186,0.0163,0.0146,0.0118,0.0082,0.0047,0.006,0.0057,0.004,-0.003,-0.0027,-0.0034,0.0026,0.0025,0.0024,-0.0039,0,0.0254,0.0279,0.0279,0.0304,0.0316,0.0303,0.0308,0.0299,0.0283,0.0271,0.0226,0.0212,0.0178,0.0168,0.0125,0.007,0.0031,0.0066,-0.0031,-0.0034,-0.0027,-0.0041,0.0021,-0.0044,-0.0046,-0.0047,-0.0047,0,0.0274,0.0292,0.0321,0.0343,0.0348,0.0362,0.0368,0.0369,0.0342,0.0328,0.0294,0.0259,0.0209,0.0179,0.0077,0.0101,0.0039,-0.001,-0.0014,-0.0029,-0.0043,-0.0046,-0.0059,-0.0058,-0.0057,-0.0056,-0.0056,0,0.0295,0.0322,0.035,0.0356,0.0375,0.039,0.0402,0.0389,0.0397,0.0365,0.0363,0.0292,0.0267,0.0174,0.0075,0.0074,-0.0039,-0.0055,-0.0114,-0.0114,-0.0112,-0.011,-0.0136,-0.0136,-0.0135,-0.0135,-0.0135,0,0.0315,0.0338,0.0367,0.0384,0.0425,0.0425,0.0459,0.0455,0.0451,0.0462,0.0399,0.0387,0.0263,0.0185,0.0086,-0.0028,-0.0034,-0.0114,-0.0134,-0.0094,-0.009,-0.0116,-0.0113,-0.0138,-0.0137,-0.0137,-0.0136,0,0.0327,0.0343,0.0382,0.0419,0.0437,0.0467,0.0513,0.0529,0.0522,0.0534,0.0529,0.0457,0.0355,0.0226,0.0077,-0.0002,-0.0118,-0.0159,-0.0096,-0.0111,-0.0169,-0.0163,-0.023,-0.0231,-0.0231,-0.0232,-0.0232,0,0.0334,0.0354,0.0413,0.0443,0.0466,0.0514,0.0546,0.0563,0.0584,0.0577,0.0584,0.0498,0.0433,0.0234,0.009,-0.0101,-0.0131,-0.0188,-0.0193,-0.0168,-0.0181,-0.0174,-0.0168,-0.0233,-0.0233,-0.0233,-0.0233,0,0.0345,0.0367,0.0401,0.0468,0.0515,0.0569,0.0621,0.0643,0.0659,0.0656,0.0631,0.0526,0.041,0.0244,0.0094,-0.0044,-0.015,-0.0193,-0.0193,-0.0199,-0.0172,-0.0183,-0.0176,-0.0235,-0.0234,-0.0234,-0.0234,0,0.0351,0.0376,0.0424,0.0482,0.0546,0.0606,0.0634,0.0665,0.0687,0.0682,0.0673,0.0548,0.0477,0.0274,0.0137,-0.0001,-0.0041,-0.0085,-0.0092,-0.0092,-0.0037,0.0019,-0.0005,0,0,0,0,0,0.0347,0.0377,0.0434,0.0498,0.0564,0.0607,0.0672,0.0693,0.0715,0.0704,0.0693,0.0585,0.0386,0.0302,0.0163,0.0111,-0.0077,-0.0057,-0.0133,-0.0243,-0.0241,-0.0202,0,0,0,0,0,0,0.0343,0.0392,0.0426,0.0502,0.0549,0.0624,0.067,0.0688,0.0687,0.0689,0.0587,0.0547,0.0351,0.0461,0.0157,0.0116,0.0049,-0.0148,-0.0151,-0.0244,-0.0242,-0.0241,-0.02,0,0,0,0,0]}]]